Weather Roundup
Issued by NWS

Home | Current Version | Previous Version | Text Only | Print | Product List | Glossary On
Versions: 1 2 3 4 5 6 7 8 9 10 11 12 13 14 15 16 17 18 19 20 21 22 23 24 25 26 27 28 29 30 31 32 33 34 35 36 37 38 39 40 41 42 43 44 45 46 47 48 49 50
358
NZUS93 KARX 250010
HRRWXR

CURRENT HOURLY OBSERVATIONS ACROSS
MUCH OF THE UPPER MISSISSIPPI VALLEY
NATIONAL WEATHER SERVICE LA CROSSE WI
600 PM CST TUE JAN 24 2017


...SOUTHEAST MINNESOTA...


CITY           SKY/WX    TMP DP  RH WIND       PRES   REMARKS
ROCHESTER      CLOUDY    30  27  88 NE14      29.72F WCI  19
ROCHESTER/MAYO CLOUDY    32  28  86 NE8       29.74F WCI  25
WINONA         CLOUDY    34  30  86 NE5       29.78S WCI  30
AUSTIN         CLOUDY    30  27  86 NE8       29.72R WCI  23
ALBERT LEA     CLOUDY    30  28  93 NE14      29.71S WCI  20
DODGE CENTER   CLOUDY    30  27  86 MISG      29.73F
PRESTON        CLOUDY    31  29  91 E9        29.73S WCI  23
OWATONNA       CLOUDY    30  27  86 E9        29.74S HAZE    WCI  22
FARIBAULT      NOT AVBL
$$

...ELSEWHERE IN MINNESOTA...


CITY           SKY/WX    TMP DP  RH WIND       PRES   REMARKS
MINNEAPOLIS    CLOUDY    33  26  75 NE12      29.79F WCI  24
INTNL FALLS    CLOUDY    25  19  78 CALM      29.87R
DULUTH         CLOUDY    30  25  81 N6        29.81S WCI  24
RED WING       CLOUDY    34  27  75 E6        29.78S WCI  29
REDWOOD FALLS  CLOUDY    31  25  78 NE7       29.77S WCI  24
MANKATO        CLOUDY    31  28  89 NE8       29.75S WCI  23
WORTHINGTON    LGT SNOW  29  27  92 MISG        N/A  FOG
FAIRMONT       CLOUDY    30  28  92 E14       29.74R FOG     WCI  19
$$

...SOUTHWEST WISCONSIN...


CITY           SKY/WX    TMP DP  RH WIND       PRES   REMARKS
LA CROSSE      CLOUDY    37  31  78 E7        29.77F WCI  32
PRAIRIE DU CHI CLOUDY    35  31  87 NE7       29.73F WCI  29
BOSCOBEL       CLOUDY    37  31  78 E3        29.75F
LONE ROCK      CLOUDY    36  31  82 E9        29.76F WCI  29
PLATTEVILLE    CLOUDY    34  34 100 E13       29.74S WCI  25
FORT MC COY    CLOUDY    34  31  90 E3        29.78F
CAMP DOUGLAS   CLOUDY    34  32  93 E3        29.78F
MAUSTON-NEW LI CLOUDY    35  31  87 NE3       29.78S
VIROQUA        CLOUDY    33  32  96 E7        29.75F WCI  27
WIS DELLS      CLOUDY    34  31  87 E3        29.77S
$$

...ELSEWHERE IN WISCONSIN...


CITY           SKY/WX    TMP DP  RH WIND       PRES   REMARKS
MILWAUKEE      CLOUDY    37  32  82 SE5       29.81F WCI  33
MADISON        CLOUDY    35  31  85 E6        29.79F WCI  30
GREEN BAY      CLOUDY    39  34  82 CALM      29.83R
EAU CLAIRE     CLOUDY    33  29  85 NE6       29.79F WCI  28
BLACK RVR FLS  CLOUDY    34  33  96 CALM      29.79S
MEDFORD        CLOUDY    32  29  90 NE5       29.78F WCI  27
WAUSAU         CLOUDY    35  29  78 E3        29.79S
WIS RAPIDS     CLOUDY    35  29  78 NE7       29.80F WCI  29
MARSHFIELD     CLOUDY    33  28  81 E6        29.78F WCI  28
RICE LAKE      CLOUDY    32  30  90 NE3       29.82S
$$

...NORTHEAST IOWA...


CITY           SKY/WX    TMP DP  RH WIND       PRES   REMARKS
WATERLOO       FLURRIES  32  30  92 E9        29.70R WCI  24
DUBUQUE        CLOUDY    33  31  92 E13       29.71F WCI  24
DECORAH        CLOUDY    32  30  93 E10       29.70F WCI  24
MASON CITY     SNOW      31  29  92 E13       29.70S VSB 1/2 WCI  21
CHARLES CITY   LGT SNOW  32  32 100 E14       29.71R WCI  22
OELWEIN        LGT SNOW  32  32 100 E15       29.69R WCI  22
$$

...ELSEWHERE IN IOWA...


CITY           SKY/WX    TMP DP  RH WIND       PRES   REMARKS
DES MOINES     CLOUDY    34  30  85 E13G22    29.63R WCI  25
IOWA CITY      CLOUDY    37  32  82 E14       29.69R WCI  28
FORT DODGE     CLOUDY    30  27  86 E16       29.67R WCI  19
MARSHALLTOWN   CLOUDY    32  31  96 E15       29.65F WCI  22
CEDAR RAPIDS   CLOUDY    34  32  92 E14       29.68R WCI  25
$$

...NORTHERN ILLINOIS...


CITY           SKY/WX    TMP DP  RH WIND       PRES   REMARKS
CHICAGO-OHARE  CLOUDY    36  31  82 E9        29.80F WCI  29
CHICAGO-MIDWAY CLOUDY    37  30  75 E9        29.82F WCI  30
MOLINE         CLOUDY    37  32  82 E14       29.68F WCI  28
ROCKFORD       CLOUDY    35  31  85 E7        29.80F WCI  29
PEORIA         CLOUDY    39  35  86 E13G18    29.71F WCI  31
$$

NOTE: "FAIR" INDICATES FEW OR NO CLOUDS BELOW 12,000 FEET WITH NO
SIGNIFICANT WEATHER AND/OR OBSTRUCTIONS TO VISIBILITY. WIND
SPEEDS ARE IN MILES-PER-HOUR.




USA.gov is the U.S. government's official web portal to all federal, state and local government web resources and services.